TimeCDT,TemperatureF,Dew PointF,Humidity,Sea Level PressureIn,VisibilityMPH,Wind Direction,Wind SpeedMPH,Gust SpeedMPH,PrecipitationIn,Events,Conditions,WindDirDegrees,DateUTC
12:53 AM,61.0,57.9,90,29.87,10.0,SSW,5.8,-,N/A,,Clear,200,2013-10-01 05:53:00
1:53 AM,60.1,57.9,93,29.87,10.0,South,8.1,-,N/A,,Clear,190,2013-10-01 06:53:00
2:53 AM,59.0,57.0,93,29.88,10.0,South,6.9,-,N/A,,Clear,190,2013-10-01 07:53:00
3:53 AM,60.1,57.9,93,29.88,10.0,South,6.9,-,N/A,,Clear,190,2013-10-01 08:53:00
4:53 AM,60.1,59.0,96,29.89,10.0,South,8.1,-,N/A,,Clear,190,2013-10-01 09:53:00
5:53 AM,60.1,59.0,96,29.91,9.0,South,6.9,-,N/A,,Partly Cloudy,190,2013-10-01 10:53:00
6:08 AM,60.8,60.8,100,29.92,9.0,South,8.1,-,N/A,,Mostly Cloudy,190,2013-10-01 11:08:00
6:31 AM,60.8,60.8,100,29.92,8.0,South,8.1,-,N/A,,Overcast,190,2013-10-01 11:31:00
6:53 AM,61.0,61.0,100,29.93,6.0,South,10.4,-,N/A,,Overcast,190,2013-10-01 11:53:00
7:53 AM,63.0,62.1,97,29.95,5.0,SSW,4.6,-,N/A,,Overcast,210,2013-10-01 12:53:00
8:53 AM,64.9,64.0,97,29.95,6.0,SSW,12.7,-,N/A,,Overcast,210,2013-10-01 13:53:00
9:53 AM,69.1,64.9,87,29.95,9.0,SSW,12.7,-,N/A,,Mostly Cloudy,200,2013-10-01 14:53:00
10:13 AM,71.6,64.4,78,29.96,10.0,SSW,12.7,-,N/A,,Mostly Cloudy,210,2013-10-01 15:13:00
10:27 AM,71.6,64.4,78,29.96,10.0,SSW,12.7,-,N/A,,Scattered Clouds,200,2013-10-01 15:27:00
10:53 AM,73.0,64.9,76,29.95,10.0,SW,15.0,21.9,N/A,,Partly Cloudy,220,2013-10-01 15:53:00
11:26 AM,73.4,64.4,73,29.96,10.0,SW,17.3,23.0,N/A,,Mostly Cloudy,220,2013-10-01 16:26:00
11:53 AM,73.0,64.9,76,29.95,9.0,SSW,12.7,20.7,N/A,,Overcast,210,2013-10-01 16:53:00
12:36 PM,75.2,66.2,73,29.95,10.0,SW,12.7,-,N/A,,Mostly Cloudy,220,2013-10-01 17:36:00
12:53 PM,77.0,66.0,69,29.94,10.0,SW,15.0,20.7,N/A,,Scattered Clouds,220,2013-10-01 17:53:00
1:53 PM,80.1,64.0,58,29.92,10.0,SSW,13.8,-,N/A,,Clear,200,2013-10-01 18:53:00
2:53 PM,82.9,62.1,49,29.91,10.0,SSW,15.0,19.6,N/A,,Clear,210,2013-10-01 19:53:00
3:53 PM,82.9,62.1,49,29.90,8.0,SW,13.8,21.9,N/A,,Clear,220,2013-10-01 20:53:00
4:53 PM,82.9,61.0,47,29.90,9.0,SW,13.8,-,N/A,,Clear,220,2013-10-01 21:53:00
5:53 PM,82.0,59.0,45,29.91,10.0,SSW,9.2,-,N/A,,Clear,210,2013-10-01 22:53:00
6:53 PM,73.9,60.1,62,29.92,8.0,SSW,3.5,-,N/A,,Clear,200,2013-10-01 23:53:00
7:10 PM,71.6,60.8,69,29.93,2.0,South,3.5,-,N/A,,Haze,190,2013-10-02 00:10:00
7:19 PM,71.6,60.8,69,29.93,5.0,South,3.5,-,N/A,,Haze,190,2013-10-02 00:19:00
7:53 PM,68.0,61.0,78,29.93,8.0,South,3.5,-,N/A,,Clear,190,2013-10-02 00:53:00
8:53 PM,69.1,61.0,75,29.95,10.0,SW,3.5,-,N/A,,Clear,220,2013-10-02 01:53:00
9:53 PM,68.0,60.1,76,29.95,7.0,South,3.5,-,N/A,,Clear,190,2013-10-02 02:53:00
10:53 PM,64.9,60.1,84,29.96,10.0,South,4.6,-,N/A,,Clear,180,2013-10-02 03:53:00
11:53 PM,64.0,59.0,84,29.97,10.0,South,4.6,-,N/A,,Clear,180,2013-10-02 04:53:00